iso_date,Year,Hour,Min,DOY,POS_DOY,Lat,Lon,BP,Ts,Ta,has_bp,has_ts,has_ta,BuoyID,Buoy_Type,Buoy_Owner,Logistics,Hemisphere
2022-07-30T22:00:02Z,2022,22,0,211.9167,211.9167,56.0102,-168.0166,1014.0,9.64,-999.0,yes,yes,no,300534061383190,SVP-B,GDP/USIABP,Healy,North
2022-07-30T21:43:03Z,2022,21,43,211.9049,211.9049,56.0086,-168.014,1013.9,9.68,-999.0,yes,yes,no,300534061383190,SVP-B,GDP/USIABP,Healy,North
2022-07-30T22:59:57Z,2022,23,0,211.9583,211.9583,56.0196,-168.0288,1014.1,9.68,-999.0,yes,yes,no,300534061383190,SVP-B,GDP/USIABP,Healy,North
2022-07-31T00:00:00Z,2022,0,0,212.0,212.0,56.0318,-168.0358,1013.9,9.71,-999.0,yes,yes,no,300534061383190,SVP-B,GDP/USIABP,Healy,North
2022-07-31T01:00:02Z,2022,1,0,212.0417,212.0417,56.0448,-168.0356,1013.9,9.71,-999.0,yes,yes,no,300534061383190,SVP-B,GDP/USIABP,Healy,North
2022-07-31T01:59:57Z,2022,2,0,212.0833,212.0833,56.0574,-168.0308,1013.8,9.71,-999.0,yes,yes,no,300534061383190,SVP-B,GDP/USIABP,Healy,North
2022-07-31T03:00:00Z,2022,3,0,212.125,212.125,56.0688,-168.0188,1014.0,9.71,-999.0,yes,yes,no,300534061383190,SVP-B,GDP/USIABP,Healy,North
2022-07-31T04:00:02Z,2022,4,0,212.1667,212.1667,56.0772,-168.0008,1014.2,9.68,-999.0,yes,yes,no,300534061383190,SVP-B,GDP/USIABP,Healy,North
2022-07-31T04:59:57Z,2022,5,0,212.2083,212.2083,56.0828,-167.9822,1014.1,9.67,-999.0,yes,yes,no,300534061383190,SVP-B,GDP/USIABP,Healy,North
2022-07-31T06:00:00Z,2022,6,0,212.25,212.25,56.085,-167.9622,1014.3,9.66,-999.0,yes,yes,no,300534061383190,SVP-B,GDP/USIABP,Healy,North
2022-07-31T07:00:02Z,2022,7,0,212.2917,212.2917,56.0826,-167.9458,1014.4,9.64,-999.0,yes,yes,no,300534061383190,SVP-B,GDP/USIABP,Healy,North
2022-07-31T07:59:57Z,2022,8,0,212.3333,212.3333,56.078,-167.9336,1014.5,9.64,-999.0,yes,yes,no,300534061383190,SVP-B,GDP/USIABP,Healy,North
2022-07-31T09:00:00Z,2022,9,0,212.375,212.375,56.0716,-167.9286,1014.4,9.64,-999.0,yes,yes,no,300534061383190,SVP-B,GDP/USIABP,Healy,North
2022-07-31T10:00:02Z,2022,10,0,212.4167,212.4167,56.0656,-167.9302,1014.8,9.64,-999.0,yes,yes,no,300534061383190,SVP-B,GDP/USIABP,Healy,North
2022-07-31T10:59:57Z,2022,11,0,212.4583,212.4583,56.0608,-167.9362,1014.1,9.64,-999.0,yes,yes,no,300534061383190,SVP-B,GDP/USIABP,Healy,North
2022-07-31T12:00:00Z,2022,12,0,212.5,212.5,56.0584,-167.942,1014.1,9.62,-999.0,yes,yes,no,300534061383190,SVP-B,GDP/USIABP,Healy,North
2022-07-31T13:00:02Z,2022,13,0,212.5417,212.5417,56.0602,-167.9502,1013.8,9.62,-999.0,yes,yes,no,300534061383190,SVP-B,GDP/USIABP,Healy,North
2022-07-31T13:59:57Z,2022,14,0,212.5833,212.5833,56.0642,-167.9492,1012.9,9.61,-999.0,yes,yes,no,300534061383190,SVP-B,GDP/USIABP,Healy,North
2022-07-31T15:00:00Z,2022,15,0,212.625,212.625,56.0694,-167.9418,1012.0,9.61,-999.0,yes,yes,no,300534061383190,SVP-B,GDP/USIABP,Healy,North
2022-07-31T16:00:02Z,2022,16,0,212.6667,212.6667,56.0736,-167.9324,1011.8,9.6,-999.0,yes,yes,no,300534061383190,SVP-B,GDP/USIABP,Healy,North
2022-07-31T16:59:57Z,2022,17,0,212.7083,212.7083,56.0768,-167.9224,1010.9,9.6,-999.0,yes,yes,no,300534061383190,SVP-B,GDP/USIABP,Healy,North
2022-07-31T18:00:00Z,2022,18,0,212.75,212.75,56.0784,-167.9152,1010.4,9.61,-999.0,yes,yes,no,300534061383190,SVP-B,GDP/USIABP,Healy,North
2022-07-31T19:00:02Z,2022,19,0,212.7917,212.7917,56.0792,-167.9116,1009.6,9.64,-999.0,yes,yes,no,300534061383190,SVP-B,GDP/USIABP,Healy,North
2022-07-31T19:59:57Z,2022,20,0,212.8333,212.8333,56.0792,-167.9106,1008.7,9.64,-999.0,yes,yes,no,300534061383190,SVP-B,GDP/USIABP,Healy,North
2022-07-31T21:00:00Z,2022,21,0,212.875,212.875,56.078,-167.9138,1007.6,9.64,-999.0,yes,yes,no,300534061383190,SVP-B,GDP/USIABP,Healy,North
2022-07-31T22:00:02Z,2022,22,0,212.9167,212.9167,56.0782,-167.9224,1007.3,9.64,-999.0,yes,yes,no,300534061383190,SVP-B,GDP/USIABP,Healy,North
2022-07-31T22:59:57Z,2022,23,0,212.9583,212.9583,56.0816,-167.9314,1006.8,9.68,-999.0,yes,yes,no,300534061383190,SVP-B,GDP/USIABP,Healy,North
2022-08-01T00:00:00Z,2022,0,0,213.0,213.0,56.0868,-167.9392,1006.5,9.71,-999.0,yes,yes,no,300534061383190,SVP-B,GDP/USIABP,Healy,North
2022-08-01T01:00:02Z,2022,1,0,213.0417,213.0417,56.0956,-167.9472,1006.2,9.72,-999.0,yes,yes,no,300534061383190,SVP-B,GDP/USIABP,Healy,North
2022-08-01T01:59:57Z,2022,2,0,213.0833,213.0833,56.0956,-167.9472,1006.0,9.73,-999.0,yes,yes,no,300534061383190,SVP-B,GDP/USIABP,Healy,North
2022-08-01T03:00:00Z,2022,3,0,213.125,213.125,56.1216,-167.9424,1005.8,9.75,-999.0,yes,yes,no,300534061383190,SVP-B,GDP/USIABP,Healy,North
2022-08-01T04:00:02Z,2022,4,0,213.1667,213.1667,56.1358,-167.9284,1005.9,9.71,-999.0,yes,yes,no,300534061383190,SVP-B,GDP/USIABP,Healy,North
2022-08-01T04:59:57Z,2022,5,0,213.2083,213.2083,56.1502,-167.9096,1005.9,9.65,-999.0,yes,yes,no,300534061383190,SVP-B,GDP/USIABP,Healy,North
2022-08-01T06:00:00Z,2022,6,0,213.25,213.25,56.1592,-167.8832,1006.1,9.65,-999.0,yes,yes,no,300534061383190,SVP-B,GDP/USIABP,Healy,North
2022-08-01T07:00:02Z,2022,7,0,213.2917,213.2917,56.164,-167.8568,1006.4,9.65,-999.0,yes,yes,no,300534061383190,SVP-B,GDP/USIABP,Healy,North
2022-08-01T07:59:57Z,2022,8,0,213.3333,213.3333,56.164,-167.8318,1006.6,9.62,-999.0,yes,yes,no,300534061383190,SVP-B,GDP/USIABP,Healy,North
2022-08-01T09:00:00Z,2022,9,0,213.375,213.375,56.1594,-167.815,1007.3,9.66,-999.0,yes,yes,no,300534061383190,SVP-B,GDP/USIABP,Healy,North
2022-08-01T10:00:02Z,2022,10,0,213.4167,213.4167,56.1532,-167.8034,1008.1,9.64,-999.0,yes,yes,no,300534061383190,SVP-B,GDP/USIABP,Healy,North
2022-08-01T10:59:57Z,2022,11,0,213.4583,213.4583,56.1404,-167.8068,1009.2,9.65,-999.0,yes,yes,no,300534061383190,SVP-B,GDP/USIABP,Healy,North
2022-08-01T12:00:00Z,2022,12,0,213.5,213.5,56.133,-167.815,1010.0,9.65,-999.0,yes,yes,no,300534061383190,SVP-B,GDP/USIABP,Healy,North
2022-08-01T13:00:02Z,2022,13,0,213.5417,213.5417,56.1288,-167.8294,1010.7,9.66,-999.0,yes,yes,no,300534061383190,SVP-B,GDP/USIABP,Healy,North
2022-08-01T13:59:57Z,2022,14,0,213.5833,213.5833,56.1298,-167.8422,1011.4,9.66,-999.0,yes,yes,no,300534061383190,SVP-B,GDP/USIABP,Healy,North
2022-08-01T15:00:00Z,2022,15,0,213.625,213.625,56.1338,-167.8538,1012.3,9.66,-999.0,yes,yes,no,300534061383190,SVP-B,GDP/USIABP,Healy,North
2022-08-01T16:00:02Z,2022,16,0,213.6667,213.6667,56.1406,-167.8576,1013.4,9.68,-999.0,yes,yes,no,300534061383190,SVP-B,GDP/USIABP,Healy,North
2022-08-01T16:59:57Z,2022,17,0,213.7083,213.7083,56.1484,-167.8548,1014.9,9.69,-999.0,yes,yes,no,300534061383190,SVP-B,GDP/USIABP,Healy,North
2022-08-01T18:00:00Z,2022,18,0,213.75,213.75,56.155,-167.8468,1016.1,9.69,-999.0,yes,yes,no,300534061383190,SVP-B,GDP/USIABP,Healy,North
2022-08-01T19:00:02Z,2022,19,0,213.7917,213.7917,56.1584,-167.8396,1017.4,9.7,-999.0,yes,yes,no,300534061383190,SVP-B,GDP/USIABP,Healy,North
2022-08-01T19:59:57Z,2022,20,0,213.8333,213.8333,56.1594,-167.8346,1018.1,9.69,-999.0,yes,yes,no,300534061383190,SVP-B,GDP/USIABP,Healy,North
2022-08-01T21:00:00Z,2022,21,0,213.875,213.875,56.1578,-167.8316,1019.1,9.7,-999.0,yes,yes,no,300534061383190,SVP-B,GDP/USIABP,Healy,North
2022-08-01T22:00:02Z,2022,22,0,213.9167,213.9167,56.1578,-167.8316,1019.7,9.71,-999.0,yes,yes,no,300534061383190,SVP-B,GDP/USIABP,Healy,North
2022-08-01T22:59:57Z,2022,23,0,213.9583,213.9583,56.1516,-167.8402,1020.2,9.72,-999.0,yes,yes,no,300534061383190,SVP-B,GDP/USIABP,Healy,North
2022-08-02T00:00:00Z,2022,0,0,214.0,214.0,56.1494,-167.8514,1020.8,9.73,-999.0,yes,yes,no,300534061383190,SVP-B,GDP/USIABP,Healy,North
2022-08-02T01:00:02Z,2022,1,0,214.0417,214.0417,56.1492,-167.8648,1021.1,9.75,-999.0,yes,yes,no,300534061383190,SVP-B,GDP/USIABP,Healy,North
2022-08-02T01:59:57Z,2022,2,0,214.0833,214.0833,56.1514,-167.8794,1021.6,9.74,-999.0,yes,yes,no,300534061383190,SVP-B,GDP/USIABP,Healy,North
2022-08-02T03:00:00Z,2022,3,0,214.125,214.125,56.1562,-167.89,1021.7,9.75,-999.0,yes,yes,no,300534061383190,SVP-B,GDP/USIABP,Healy,North
2022-08-02T04:00:02Z,2022,4,0,214.1667,214.1667,56.1642,-167.8976,1021.9,9.74,-999.0,yes,yes,no,300534061383190,SVP-B,GDP/USIABP,Healy,North
2022-08-02T04:59:57Z,2022,5,0,214.2083,214.2083,56.173,-167.8978,1022.2,9.75,-999.0,yes,yes,no,300534061383190,SVP-B,GDP/USIABP,Healy,North
2022-08-02T06:00:00Z,2022,6,0,214.25,214.25,56.1814,-167.8922,1022.5,9.74,-999.0,yes,yes,no,300534061383190,SVP-B,GDP/USIABP,Healy,North
2022-08-02T07:00:02Z,2022,7,0,214.2917,214.2917,56.1878,-167.8824,1023.0,9.74,-999.0,yes,yes,no,300534061383190,SVP-B,GDP/USIABP,Healy,North
2022-08-02T07:59:57Z,2022,8,0,214.3333,214.3333,56.1912,-167.8708,1023.4,9.73,-999.0,yes,yes,no,300534061383190,SVP-B,GDP/USIABP,Healy,North
2022-08-02T09:00:00Z,2022,9,0,214.375,214.375,56.1914,-167.8578,1023.8,9.73,-999.0,yes,yes,no,300534061383190,SVP-B,GDP/USIABP,Healy,North
2022-08-02T10:00:02Z,2022,10,0,214.4167,214.4167,56.1884,-167.8492,1023.9,9.73,-999.0,yes,yes,no,300534061383190,SVP-B,GDP/USIABP,Healy,North
2022-08-02T10:59:57Z,2022,11,0,214.4583,214.4583,56.1842,-167.8442,1024.3,9.73,-999.0,yes,yes,no,300534061383190,SVP-B,GDP/USIABP,Healy,North
2022-08-02T12:00:00Z,2022,12,0,214.5,214.5,56.1794,-167.8438,1024.3,9.73,-999.0,yes,yes,no,300534061383190,SVP-B,GDP/USIABP,Healy,North
2022-08-02T13:00:02Z,2022,13,0,214.5417,214.5417,56.1736,-167.8478,1024.3,9.73,-999.0,yes,yes,no,300534061383190,SVP-B,GDP/USIABP,Healy,North
2022-08-02T13:59:57Z,2022,14,0,214.5833,214.5833,56.1696,-167.8546,1024.1,9.74,-999.0,yes,yes,no,300534061383190,SVP-B,GDP/USIABP,Healy,North
2022-08-02T15:00:00Z,2022,15,0,214.625,214.625,56.1672,-167.8628,1024.2,9.73,-999.0,yes,yes,no,300534061383190,SVP-B,GDP/USIABP,Healy,North
2022-08-02T16:00:02Z,2022,16,0,214.6667,214.6667,56.1674,-167.8718,1023.9,9.73,-999.0,yes,yes,no,300534061383190,SVP-B,GDP/USIABP,Healy,North
2022-08-02T16:59:57Z,2022,17,0,214.7083,214.7083,56.1696,-167.8794,1024.0,9.72,-999.0,yes,yes,no,300534061383190,SVP-B,GDP/USIABP,Healy,North
2022-08-02T18:00:00Z,2022,18,0,214.75,214.75,56.1742,-167.885,1023.8,9.73,-999.0,yes,yes,no,300534061383190,SVP-B,GDP/USIABP,Healy,North
2022-08-02T19:00:02Z,2022,19,0,214.7917,214.7917,56.1802,-167.8876,1024.0,9.74,-999.0,yes,yes,no,300534061383190,SVP-B,GDP/USIABP,Healy,North
2022-08-02T19:59:57Z,2022,20,0,214.8333,214.8333,56.186,-167.8868,1023.9,9.75,-999.0,yes,yes,no,300534061383190,SVP-B,GDP/USIABP,Healy,North
2022-08-02T21:00:00Z,2022,21,0,214.875,214.875,56.1902,-167.8862,1023.7,9.77,-999.0,yes,yes,no,300534061383190,SVP-B,GDP/USIABP,Healy,North
2022-08-02T22:00:02Z,2022,22,0,214.9167,214.9167,56.1926,-167.8858,1023.5,9.79,-999.0,yes,yes,no,300534061383190,SVP-B,GDP/USIABP,Healy,North
2022-08-02T22:59:57Z,2022,23,0,214.9583,214.9583,56.1936,-167.8948,1023.0,9.79,-999.0,yes,yes,no,300534061383190,SVP-B,GDP/USIABP,Healy,North
2022-08-03T00:00:00Z,2022,0,0,215.0,215.0,56.1948,-167.9014,1022.5,9.79,-999.0,yes,yes,no,300534061383190,SVP-B,GDP/USIABP,Healy,North
2022-08-03T01:00:02Z,2022,1,0,215.0417,215.0417,56.1972,-167.91,1021.4,9.81,-999.0,yes,yes,no,300534061383190,SVP-B,GDP/USIABP,Healy,North
2022-08-03T01:59:57Z,2022,2,0,215.0833,215.0833,56.1996,-167.919,1020.8,9.8,-999.0,yes,yes,no,300534061383190,SVP-B,GDP/USIABP,Healy,North
2022-08-03T03:00:00Z,2022,3,0,215.125,215.125,56.2034,-167.9272,1020.4,9.8,-999.0,yes,yes,no,300534061383190,SVP-B,GDP/USIABP,Healy,North
2022-08-03T04:00:02Z,2022,4,0,215.1667,215.1667,56.2082,-167.933,1019.4,9.79,-999.0,yes,yes,no,300534061383190,SVP-B,GDP/USIABP,Healy,North
2022-08-03T04:59:57Z,2022,5,0,215.2083,215.2083,56.2134,-167.9364,1018.1,9.79,-999.0,yes,yes,no,300534061383190,SVP-B,GDP/USIABP,Healy,North
2022-08-03T06:00:00Z,2022,6,0,215.25,215.25,56.2204,-167.937,1016.7,9.78,-999.0,yes,yes,no,300534061383190,SVP-B,GDP/USIABP,Healy,North
2022-08-03T07:00:02Z,2022,7,0,215.2917,215.2917,56.2268,-167.9366,1016.7,9.77,-999.0,yes,yes,no,300534061383190,SVP-B,GDP/USIABP,Healy,North
2022-08-03T07:59:57Z,2022,8,0,215.3333,215.3333,56.2342,-167.9314,1016.1,9.77,-999.0,yes,yes,no,300534061383190,SVP-B,GDP/USIABP,Healy,North
2022-08-03T09:00:00Z,2022,9,0,215.375,215.375,56.2386,-167.9254,1015.4,9.77,-999.0,yes,yes,no,300534061383190,SVP-B,GDP/USIABP,Healy,North
2022-08-03T10:00:02Z,2022,10,0,215.4167,215.4167,56.2416,-167.9172,1015.4,9.77,-999.0,yes,yes,no,300534061383190,SVP-B,GDP/USIABP,Healy,North
2022-08-03T10:59:57Z,2022,11,0,215.4583,215.4583,56.242,-167.909,1015.5,9.77,-999.0,yes,yes,no,300534061383190,SVP-B,GDP/USIABP,Healy,North
2022-08-03T12:00:00Z,2022,12,0,215.5,215.5,56.2386,-167.9016,1015.5,9.77,-999.0,yes,yes,no,300534061383190,SVP-B,GDP/USIABP,Healy,North
2022-08-03T13:00:02Z,2022,13,0,215.5417,215.5417,56.2366,-167.9018,1014.9,9.77,-999.0,yes,yes,no,300534061383190,SVP-B,GDP/USIABP,Healy,North
2022-08-03T13:59:57Z,2022,14,0,215.5833,215.5833,56.234,-167.9026,1014.4,9.77,-999.0,yes,yes,no,300534061383190,SVP-B,GDP/USIABP,Healy,North
2022-08-03T15:00:00Z,2022,15,0,215.625,215.625,56.2322,-167.9046,1013.8,9.76,-999.0,yes,yes,no,300534061383190,SVP-B,GDP/USIABP,Healy,North
2022-08-03T16:00:02Z,2022,16,0,215.6667,215.6667,56.2314,-167.909,1013.3,9.76,-999.0,yes,yes,no,300534061383190,SVP-B,GDP/USIABP,Healy,North
2022-08-03T16:59:57Z,2022,17,0,215.7083,215.7083,56.2322,-167.9126,1013.2,9.76,-999.0,yes,yes,no,300534061383190,SVP-B,GDP/USIABP,Healy,North
2022-08-03T18:00:00Z,2022,18,0,215.75,215.75,56.2346,-167.9136,1013.1,9.76,-999.0,yes,yes,no,300534061383190,SVP-B,GDP/USIABP,Healy,North
2022-08-03T19:00:02Z,2022,19,0,215.7917,215.7917,56.2388,-167.911,1013.3,9.77,-999.0,yes,yes,no,300534061383190,SVP-B,GDP/USIABP,Healy,North
2022-08-03T19:59:57Z,2022,20,0,215.8333,215.8333,56.2428,-167.908,1013.3,9.78,-999.0,yes,yes,no,300534061383190,SVP-B,GDP/USIABP,Healy,North
2022-08-03T21:00:00Z,2022,21,0,215.875,215.875,56.2454,-167.9044,1013.5,9.8,-999.0,yes,yes,no,300534061383190,SVP-B,GDP/USIABP,Healy,North
2022-08-03T22:00:02Z,2022,22,0,215.9167,215.9167,56.2474,-167.9008,1013.8,9.81,-999.0,yes,yes,no,300534061383190,SVP-B,GDP/USIABP,Healy,North
2022-08-03T22:59:57Z,2022,23,0,215.9583,215.9583,56.2482,-167.8992,1014.4,9.83,-999.0,yes,yes,no,300534061383190,SVP-B,GDP/USIABP,Healy,North
2022-08-04T00:00:00Z,2022,0,0,216.0,216.0,56.2484,-167.8998,1014.3,9.83,-999.0,yes,yes,no,300534061383190,SVP-B,GDP/USIABP,Healy,North
2022-08-04T01:00:02Z,2022,1,0,216.0417,216.0417,56.25,-167.9006,1014.5,9.84,-999.0,yes,yes,no,300534061383190,SVP-B,GDP/USIABP,Healy,North
2022-08-04T01:59:57Z,2022,2,0,216.0833,216.0833,56.2514,-167.9004,1014.4,9.86,-999.0,yes,yes,no,300534061383190,SVP-B,GDP/USIABP,Healy,North
2022-08-04T03:00:00Z,2022,3,0,216.125,216.125,56.2542,-167.8986,1013.8,9.86,-999.0,yes,yes,no,300534061383190,SVP-B,GDP/USIABP,Healy,North
2022-08-04T04:00:02Z,2022,4,0,216.1667,216.1667,56.2574,-167.8924,1013.4,9.86,-999.0,yes,yes,no,300534061383190,SVP-B,GDP/USIABP,Healy,North
2022-08-04T04:59:57Z,2022,5,0,216.2083,216.2083,56.2574,-167.8924,1013.2,9.85,-999.0,yes,yes,no,300534061383190,SVP-B,GDP/USIABP,Healy,North
2022-08-04T06:00:00Z,2022,6,0,216.25,216.25,56.2618,-167.8752,1013.1,9.84,-999.0,yes,yes,no,300534061383190,SVP-B,GDP/USIABP,Healy,North
2022-08-04T07:00:02Z,2022,7,0,216.2917,216.2917,56.2642,-167.8628,1012.8,9.82,-999.0,yes,yes,no,300534061383190,SVP-B,GDP/USIABP,Healy,North
2022-08-04T07:59:57Z,2022,8,0,216.3333,216.3333,56.2654,-167.8484,1012.9,9.81,-999.0,yes,yes,no,300534061383190,SVP-B,GDP/USIABP,Healy,North
2022-08-04T09:00:00Z,2022,9,0,216.375,216.375,56.265,-167.8358,1012.4,9.81,-999.0,yes,yes,no,300534061383190,SVP-B,GDP/USIABP,Healy,North
2022-08-04T10:00:02Z,2022,10,0,216.4167,216.4167,56.2628,-167.8262,1012.3,9.79,-999.0,yes,yes,no,300534061383190,SVP-B,GDP/USIABP,Healy,North
2022-08-04T10:59:57Z,2022,11,0,216.4583,216.4583,56.2598,-167.8212,1012.1,9.79,-999.0,yes,yes,no,300534061383190,SVP-B,GDP/USIABP,Healy,North
2022-08-04T12:00:00Z,2022,12,0,216.5,216.5,56.256,-167.8202,1011.8,9.75,-999.0,yes,yes,no,300534061383190,SVP-B,GDP/USIABP,Healy,North
2022-08-04T13:00:02Z,2022,13,0,216.5417,216.5417,56.2534,-167.8236,1011.3,9.75,-999.0,yes,yes,no,300534061383190,SVP-B,GDP/USIABP,Healy,North
2022-08-04T13:59:57Z,2022,14,0,216.5833,216.5833,56.252,-167.8292,1010.7,9.73,-999.0,yes,yes,no,300534061383190,SVP-B,GDP/USIABP,Healy,North
2022-08-04T15:00:00Z,2022,15,0,216.625,216.625,56.2518,-167.8374,1010.2,9.72,-999.0,yes,yes,no,300534061383190,SVP-B,GDP/USIABP,Healy,North
2022-08-04T16:00:02Z,2022,16,0,216.6667,216.6667,56.2544,-167.8436,1010.0,9.72,-999.0,yes,yes,no,300534061383190,SVP-B,GDP/USIABP,Healy,North
2022-08-04T16:59:57Z,2022,17,0,216.7083,216.7083,56.2594,-167.8456,1009.7,9.71,-999.0,yes,yes,no,300534061383190,SVP-B,GDP/USIABP,Healy,North
2022-08-04T18:00:00Z,2022,18,0,216.75,216.75,56.2594,-167.8456,1009.8,9.69,-999.0,yes,yes,no,300534061383190,SVP-B,GDP/USIABP,Healy,North
2022-08-04T19:00:02Z,2022,19,0,216.7917,216.7917,56.271,-167.8376,1010.1,9.7,-999.0,yes,yes,no,300534061383190,SVP-B,GDP/USIABP,Healy,North
2022-08-04T19:59:57Z,2022,20,0,216.8333,216.8333,56.2756,-167.8282,1010.2,9.69,-999.0,yes,yes,no,300534061383190,SVP-B,GDP/USIABP,Healy,North
2022-08-04T21:00:00Z,2022,21,0,216.875,216.875,56.2756,-167.8282,1010.3,9.7,-999.0,yes,yes,no,300534061383190,SVP-B,GDP/USIABP,Healy,North
2022-08-04T22:00:02Z,2022,22,0,216.9167,216.9167,56.278,-167.8086,1010.2,9.7,-999.0,yes,yes,no,300534061383190,SVP-B,GDP/USIABP,Healy,North
2022-08-04T22:59:57Z,2022,23,0,216.9583,216.9583,56.276,-167.8028,1010.4,9.7,-999.0,yes,yes,no,300534061383190,SVP-B,GDP/USIABP,Healy,North
2022-08-05T00:00:00Z,2022,0,0,217.0,217.0,56.276,-167.8028,1010.2,9.7,-999.0,yes,yes,no,300534061383190,SVP-B,GDP/USIABP,Healy,North
2022-08-05T01:00:02Z,2022,1,0,217.0417,217.0417,56.2694,-167.8058,1010.2,9.71,-999.0,yes,yes,no,300534061383190,SVP-B,GDP/USIABP,Healy,North
2022-08-05T01:59:57Z,2022,2,0,217.0833,217.0833,56.2666,-167.8124,1010.0,9.71,-999.0,yes,yes,no,300534061383190,SVP-B,GDP/USIABP,Healy,North
2022-08-05T03:00:00Z,2022,3,0,217.125,217.125,56.2652,-167.822,1010.0,9.72,-999.0,yes,yes,no,300534061383190,SVP-B,GDP/USIABP,Healy,North
2022-08-05T04:00:02Z,2022,4,0,217.1667,217.1667,56.266,-167.8316,1010.2,9.72,-999.0,yes,yes,no,300534061383190,SVP-B,GDP/USIABP,Healy,North
2022-08-05T04:59:57Z,2022,5,0,217.2083,217.2083,56.2698,-167.8376,1010.2,9.71,-999.0,yes,yes,no,300534061383190,SVP-B,GDP/USIABP,Healy,North
2022-08-05T06:00:00Z,2022,6,0,217.25,217.25,56.275,-167.839,1010.1,9.72,-999.0,yes,yes,no,300534061383190,SVP-B,GDP/USIABP,Healy,North
2022-08-05T07:00:02Z,2022,7,0,217.2917,217.2917,56.2814,-167.834,1010.4,9.73,-999.0,yes,yes,no,300534061383190,SVP-B,GDP/USIABP,Healy,North
2022-08-05T07:59:57Z,2022,8,0,217.3333,217.3333,56.2872,-167.824,1011.3,9.71,-999.0,yes,yes,no,300534061383190,SVP-B,GDP/USIABP,Healy,North
2022-08-05T09:00:00Z,2022,9,0,217.375,217.375,56.2902,-167.811,1011.6,9.72,-999.0,yes,yes,no,300534061383190,SVP-B,GDP/USIABP,Healy,North
2022-08-05T10:00:02Z,2022,10,0,217.4167,217.4167,56.29,-167.7964,1011.8,9.72,-999.0,yes,yes,no,300534061383190,SVP-B,GDP/USIABP,Healy,North
2022-08-05T10:59:57Z,2022,11,0,217.4583,217.4583,56.2866,-167.7866,1012.3,9.71,-999.0,yes,yes,no,300534061383190,SVP-B,GDP/USIABP,Healy,North
2022-08-05T12:00:00Z,2022,12,0,217.5,217.5,56.2796,-167.7822,1012.5,9.71,-999.0,yes,yes,no,300534061383190,SVP-B,GDP/USIABP,Healy,North
2022-08-05T13:00:02Z,2022,13,0,217.5417,217.5417,56.271,-167.7872,1013.0,9.71,-999.0,yes,yes,no,300534061383190,SVP-B,GDP/USIABP,Healy,North
2022-08-05T13:59:57Z,2022,14,0,217.5833,217.5833,56.2642,-167.7982,1013.4,9.71,-999.0,yes,yes,no,300534061383190,SVP-B,GDP/USIABP,Healy,North
2022-08-05T15:00:00Z,2022,15,0,217.625,217.625,56.2586,-167.8166,1013.9,9.71,-999.0,yes,yes,no,300534061383190,SVP-B,GDP/USIABP,Healy,North
2022-08-05T16:00:02Z,2022,16,0,217.6667,217.6667,56.2566,-167.839,1014.5,9.71,-999.0,yes,yes,no,300534061383190,SVP-B,GDP/USIABP,Healy,North
2022-08-05T16:59:57Z,2022,17,0,217.7083,217.7083,56.2588,-167.8598,1015.1,9.7,-999.0,yes,yes,no,300534061383190,SVP-B,GDP/USIABP,Healy,North
2022-08-05T18:00:00Z,2022,18,0,217.75,217.75,56.2588,-167.8598,1015.3,9.71,-999.0,yes,yes,no,300534061383190,SVP-B,GDP/USIABP,Healy,North
2022-08-05T19:00:02Z,2022,19,0,217.7917,217.7917,56.2746,-167.889,1015.7,9.7,-999.0,yes,yes,no,300534061383190,SVP-B,GDP/USIABP,Healy,North
2022-08-05T19:59:57Z,2022,20,0,217.8333,217.8333,56.2852,-167.8924,1015.8,9.71,-999.0,yes,yes,no,300534061383190,SVP-B,GDP/USIABP,Healy,North
2022-08-05T21:00:00Z,2022,21,0,217.875,217.875,56.2958,-167.8884,1015.7,9.72,-999.0,yes,yes,no,300534061383190,SVP-B,GDP/USIABP,Healy,North
2022-08-05T22:00:02Z,2022,22,0,217.9167,217.9167,56.3044,-167.8782,1015.8,9.72,-999.0,yes,yes,no,300534061383190,SVP-B,GDP/USIABP,Healy,North
2022-08-05T22:59:57Z,2022,23,0,217.9583,217.9583,56.3086,-167.865,1016.1,9.73,-999.0,yes,yes,no,300534061383190,SVP-B,GDP/USIABP,Healy,North
2022-08-06T00:00:00Z,2022,0,0,218.0,218.0,56.309,-167.851,1015.9,9.75,-999.0,yes,yes,no,300534061383190,SVP-B,GDP/USIABP,Healy,North
2022-08-06T01:00:02Z,2022,1,0,218.0417,218.0417,56.2984,-167.8072,1016.2,9.76,-999.0,yes,yes,no,300534061383190,SVP-B,GDP/USIABP,Healy,North
2022-08-06T01:59:57Z,2022,2,0,218.0833,218.0833,56.298,-167.8372,1016.1,9.75,-999.0,yes,yes,no,300534061383190,SVP-B,GDP/USIABP,Healy,North
2022-08-06T03:00:00Z,2022,3,0,218.125,218.125,56.2898,-167.839,1016.0,9.77,-999.0,yes,yes,no,300534061383190,SVP-B,GDP/USIABP,Healy,North
2022-08-06T04:00:02Z,2022,4,0,218.1667,218.1667,56.284,-167.8454,1015.9,9.77,-999.0,yes,yes,no,300534061383190,SVP-B,GDP/USIABP,Healy,North
2022-08-06T04:59:57Z,2022,5,0,218.2083,218.2083,56.2794,-167.855,1016.2,9.75,-999.0,yes,yes,no,300534061383190,SVP-B,GDP/USIABP,Healy,North
2022-08-06T06:00:00Z,2022,6,0,218.25,218.25,56.2774,-167.8636,1016.6,9.76,-999.0,yes,yes,no,300534061383190,SVP-B,GDP/USIABP,Healy,North
2022-08-06T07:00:02Z,2022,7,0,218.2917,218.2917,56.279,-167.8704,1017.1,9.75,-999.0,yes,yes,no,300534061383190,SVP-B,GDP/USIABP,Healy,North
2022-08-06T07:59:57Z,2022,8,0,218.3333,218.3333,56.2834,-167.8718,1018.0,9.75,-999.0,yes,yes,no,300534061383190,SVP-B,GDP/USIABP,Healy,North
2022-08-06T09:00:00Z,2022,9,0,218.375,218.375,56.287,-167.8694,1018.4,9.75,-999.0,yes,yes,no,300534061383190,SVP-B,GDP/USIABP,Healy,North
2022-08-06T10:00:02Z,2022,10,0,218.4167,218.4167,56.2914,-167.8638,1018.9,9.75,-999.0,yes,yes,no,300534061383190,SVP-B,GDP/USIABP,Healy,North
2022-08-06T10:59:57Z,2022,11,0,218.4583,218.4583,56.2932,-167.857,1019.6,9.76,-999.0,yes,yes,no,300534061383190,SVP-B,GDP/USIABP,Healy,North
2022-08-06T12:00:00Z,2022,12,0,218.5,218.5,56.292,-167.8514,1020.1,9.75,-999.0,yes,yes,no,300534061383190,SVP-B,GDP/USIABP,Healy,North
2022-08-06T13:00:02Z,2022,13,0,218.5417,218.5417,56.2884,-167.8504,1020.7,9.75,-999.0,yes,yes,no,300534061383190,SVP-B,GDP/USIABP,Healy,North
2022-08-06T13:59:57Z,2022,14,0,218.5833,218.5833,56.2838,-167.855,1021.2,9.75,-999.0,yes,yes,no,300534061383190,SVP-B,GDP/USIABP,Healy,North
2022-08-06T15:00:00Z,2022,15,0,218.625,218.625,56.2786,-167.8668,1021.4,9.74,-999.0,yes,yes,no,300534061383190,SVP-B,GDP/USIABP,Healy,North
2022-08-06T16:00:02Z,2022,16,0,218.6667,218.6667,56.2748,-167.8852,1022.0,9.75,-999.0,yes,yes,no,300534061383190,SVP-B,GDP/USIABP,Healy,North
2022-08-06T16:59:57Z,2022,17,0,218.7083,218.7083,56.2748,-167.8852,1022.7,9.74,-999.0,yes,yes,no,300534061383190,SVP-B,GDP/USIABP,Healy,North
2022-08-06T18:00:00Z,2022,18,0,218.75,218.75,56.2778,-167.9242,1023.3,9.74,-999.0,yes,yes,no,300534061383190,SVP-B,GDP/USIABP,Healy,North
2022-08-06T19:00:02Z,2022,19,0,218.7917,218.7917,56.283,-167.9406,1023.5,9.76,-999.0,yes,yes,no,300534061383190,SVP-B,GDP/USIABP,Healy,North
2022-08-06T19:59:57Z,2022,20,0,218.8333,218.8333,56.2904,-167.9528,1023.6,9.8,-999.0,yes,yes,no,300534061383190,SVP-B,GDP/USIABP,Healy,North
2022-08-06T21:00:00Z,2022,21,0,218.875,218.875,56.2998,-167.9602,1023.9,9.91,-999.0,yes,yes,no,300534061383190,SVP-B,GDP/USIABP,Healy,North
2022-08-06T22:00:02Z,2022,22,0,218.9167,218.9167,56.3094,-167.9612,1023.8,9.98,-999.0,yes,yes,no,300534061383190,SVP-B,GDP/USIABP,Healy,North